Weather History for Jefferson, NC

Change the Weather History Date:

Tuesday, May 8, 2012

  Actual Average Record
Temperature  
Mean Temperature 62 °F -  
Max Temperature 66 °F 68 °F 79 °F (1986)
Min Temperature 57 °F 43 °F 27 °F (1981)
Degree Days  
Heating Degree Days 4    
Growing Degree Days 12 (Base 50)    
Moisture  
Dew Point 57 °F    
Average Humidity 86    
Maximum Humidity 94    
Minimum Humidity 73    
Precipitation  
Precipitation 0.31 in - - ()
Sea Level Pressure  
Sea Level Pressure 29.98 in    
Wind  
Wind Speed 4 mph (South)    
Max Wind Speed 13 mph    
Max Gust Speed 18 mph    
Visibility 7 miles    
Events Rain    
Averages and records for this station are not official NWS values.
T = Trace of Precipitation, MM = Missing Value Source: NWS Daily Summary

Daily Weather History Graph

Daily Weather History Graph

Search for Another Location

Airport:

Trip Planner

Search our weather history database for the weather conditions in past years. The results will help you decide how hot, cold, wet, or windy it might be!

Date:

Astronomy

May. 08, 2012 Rise Set
Actual Time 6:24 AM EDT 8:20 PM EDT
Civil Twilight 5:56 AM EDT 8:48 PM EDT
Nautical Twilight 5:22 AM EDT 9:22 PM EDT
Astronomical Twilight 4:45 AM EDT 9:59 PM EDT
Moon 11:27 PM EDT (5/8) 8:33 AM EDT (5/8)
Length of Visible Light 14h 51m
Length of Day
13h 55m
Waning Gibbous, 91% of the Moon is Illuminated
May 8
Waning Gibbous
May 12
Last Quarter
May 20
New
May 28
First Quarter
Jun 4
Full

Hourly Weather History & Observations

Time (EDT) Temp. Dew Point Humidity Pressure Visibility Wind Dir Wind Speed Gust Speed Precip Events Conditions
12:15 AM 59.0 °F 55.4 °F 88% 30.06 in 10.0 mi SSE 4.6 mph - N/A   Overcast
12:35 AM 59.0 °F 53.6 °F 82% 30.06 in 10.0 mi SSE 3.5 mph - N/A   Overcast
12:55 AM 59.0 °F 53.6 °F 82% 30.06 in 10.0 mi SE 3.5 mph - N/A   Overcast
1:15 AM 59.0 °F 53.6 °F 82% 30.04 in 10.0 mi SE 3.5 mph - N/A   Overcast
1:35 AM 59.0 °F 53.6 °F 82% 30.03 in 10.0 mi SSE 5.8 mph - N/A   Overcast
1:55 AM 59.0 °F 53.6 °F 82% 30.02 in 10.0 mi SSE 4.6 mph - N/A   Overcast
2:15 AM 59.0 °F 53.6 °F 82% 30.02 in 10.0 mi SE 3.5 mph - N/A   Overcast
2:35 AM 59.0 °F 53.6 °F 82% 30.01 in 10.0 mi SE 3.5 mph - N/A   Overcast
2:55 AM 59.0 °F 53.6 °F 82% 30.01 in 10.0 mi SSE 4.6 mph - N/A   Overcast
3:15 AM 59.0 °F 53.6 °F 82% 30.00 in 10.0 mi SE 3.5 mph - N/A Rain Light Rain
3:35 AM 59.0 °F 55.4 °F 88% 30.00 in 4.0 mi SSE 3.5 mph - N/A   Drizzle
3:55 AM 59.0 °F 55.4 °F 88% 29.99 in 2.5 mi SSE 5.8 mph - N/A   Drizzle
4:15 AM 59.0 °F 55.4 °F 88% 29.99 in 3.0 mi SSE 3.5 mph - N/A   Drizzle
4:35 AM 59.0 °F 55.4 °F 88% 29.99 in 3.0 mi SSE 4.6 mph - N/A Rain Rain
4:55 AM 59.0 °F 55.4 °F 88% 29.99 in 2.5 mi SSE 5.8 mph - 0.01 in Rain Rain
5:15 AM 59.0 °F 55.4 °F 88% 29.99 in 2.0 mi SSE 3.5 mph - 0.03 in Rain Rain
5:35 AM 59.0 °F 55.4 °F 88% 29.99 in 1.2 mi SSE 4.6 mph - 0.04 in Rain Heavy Rain
5:55 AM 59.0 °F 55.4 °F 88% 29.99 in 1.5 mi SSE 3.5 mph - 0.04 in Rain Light Rain
6:15 AM 57.2 °F 55.4 °F 94% 29.99 in 1.5 mi South 3.5 mph - N/A   Drizzle
6:35 AM 59.0 °F 55.4 °F 88% 29.99 in 4.0 mi SE 5.8 mph - N/A   Drizzle
6:55 AM 59.0 °F 55.4 °F 88% 30.00 in 5.0 mi SSE 4.6 mph - N/A Rain Light Rain
7:15 AM 59.0 °F 55.4 °F 88% 30.00 in 3.0 mi South 4.6 mph - 0.01 in Rain Light Rain
7:35 AM 59.0 °F 55.4 °F 88% 30.00 in 3.0 mi SSE 3.5 mph - 0.01 in   Heavy Drizzle
7:55 AM 59.0 °F 55.4 °F 88% 30.01 in 3.0 mi Calm Calm - 0.01 in   Drizzle
8:15 AM 59.0 °F 55.4 °F 88% 30.00 in 0.8 mi SSE 3.5 mph - N/A Rain Heavy Rain
8:35 AM 59.0 °F 55.4 °F 88% 30.00 in 0.5 mi SSE 3.5 mph - 0.08 in Rain Heavy Rain
8:55 AM 59.0 °F 55.4 °F 88% 30.01 in 1.2 mi Calm Calm - 0.13 in Rain Light Rain
9:15 AM 59.0 °F 57.2 °F 94% 30.01 in 2.5 mi SSE 3.5 mph - N/A   Drizzle
9:35 AM 59.0 °F 57.2 °F 94% 30.01 in 3.0 mi SE 3.5 mph - N/A Rain Light Rain
9:55 AM 59.0 °F 57.2 °F 94% 30.00 in 0.5 mi SSE 3.5 mph - N/A   Light Drizzle
10:15 AM 59.0 °F 57.2 °F 94% 29.99 in 1.5 mi Calm Calm - N/A   Overcast
10:35 AM 59.0 °F 57.2 °F 94% 30.00 in 5.0 mi South 3.5 mph - N/A   Overcast
10:55 AM 60.8 °F 59.0 °F 94% 30.00 in 10.0 mi Calm Calm - N/A   Overcast
11:15 AM 60.8 °F 59.0 °F 94% 30.00 in 3.0 mi SE 3.5 mph - N/A Rain Rain
11:55 AM 62.6 °F 60.8 °F 94% 29.99 in 10.0 mi SSE 4.6 mph - N/A   Overcast
12:15 PM 64.4 °F 59.0 °F 83% 29.98 in 10.0 mi SSE 4.6 mph - N/A   Overcast
12:35 PM 64.4 °F 59.0 °F 83% 29.98 in 10.0 mi SSE 4.6 mph - N/A   Overcast
12:55 PM 64.4 °F 60.8 °F 88% 29.98 in 10.0 mi SE 3.5 mph - N/A   Overcast
1:15 PM 66.2 °F 60.8 °F 83% 29.97 in 10.0 mi SSE 5.8 mph - N/A   Overcast
1:35 PM 64.4 °F 59.0 °F 83% 29.96 in 10.0 mi SSE 6.9 mph - N/A   Overcast
1:55 PM 64.4 °F 59.0 °F 83% 29.96 in 10.0 mi SSE 5.8 mph - N/A   Overcast
2:15 PM 64.4 °F 60.8 °F 88% 29.96 in 10.0 mi SSE 5.8 mph - N/A   Overcast
2:35 PM 64.4 °F 59.0 °F 83% 29.95 in 10.0 mi SE 6.9 mph - N/A   Overcast
2:55 PM 64.4 °F 59.0 °F 83% 29.95 in 10.0 mi South 5.8 mph - N/A   Overcast
3:15 PM 62.6 °F 59.0 °F 88% 29.95 in 5.0 mi SSE 4.6 mph - N/A Rain Rain
3:35 PM 62.6 °F 59.0 °F 88% 29.95 in 3.0 mi SW 4.6 mph - 0.06 in Rain Heavy Rain
3:55 PM 62.6 °F 59.0 °F 88% 29.95 in 2.5 mi SW 3.5 mph - 0.10 in Rain Rain
4:15 PM 62.6 °F 60.8 °F 94% 29.94 in 5.0 mi Calm Calm - 0.01 in   Overcast
4:35 PM 62.6 °F 60.8 °F 94% 29.94 in 7.0 mi Calm Calm - 0.01 in   Overcast
4:55 PM 64.4 °F 60.8 °F 88% 29.93 in 10.0 mi Calm Calm - 0.01 in   Overcast
5:15 PM 64.4 °F 60.8 °F 88% 29.92 in 10.0 mi Calm Calm - N/A   Overcast
5:35 PM 64.4 °F 62.6 °F 94% 29.93 in 10.0 mi SSE 3.5 mph - N/A   Overcast
6:15 PM 64.4 °F 60.8 °F 88% 29.92 in 10.0 mi Calm Calm - N/A   Overcast
6:35 PM 64.4 °F 60.8 °F 88% 29.92 in 10.0 mi Calm Calm - N/A   Overcast
6:55 PM 64.4 °F 60.8 °F 88% 29.92 in 10.0 mi WNW 4.6 mph - N/A   Overcast
7:15 PM 64.4 °F 55.4 °F 73% 29.93 in 10.0 mi WNW 12.7 mph 18.4 mph N/A   Drizzle
7:35 PM 62.6 °F 57.2 °F 82% 29.93 in 10.0 mi WNW 9.2 mph 16.1 mph 0.01 in Rain Light Rain
7:55 PM 62.6 °F 55.4 °F 77% 29.93 in 10.0 mi West 8.1 mph - 0.01 in Rain Light Rain
8:15 PM 62.6 °F 55.4 °F 77% 29.94 in 10.0 mi WNW 8.1 mph - N/A   Overcast
8:35 PM 62.6 °F 55.4 °F 77% 29.95 in 10.0 mi WNW 4.6 mph - N/A   Overcast
8:55 PM 60.8 °F 55.4 °F 82% 29.95 in 10.0 mi NW 6.9 mph - N/A   Heavy Drizzle
9:15 PM 60.8 °F 55.4 °F 82% 29.95 in 10.0 mi NW 5.8 mph - N/A   Overcast
9:55 PM 60.8 °F 53.6 °F 77% 29.95 in 10.0 mi NW 5.8 mph - N/A   Overcast
10:15 PM 60.8 °F 53.6 °F 77% 29.97 in 10.0 mi WNW 4.6 mph - N/A   Overcast
10:35 PM 60.8 °F 55.4 °F 82% 29.97 in 10.0 mi Calm Calm - N/A   Overcast
10:55 PM 60.8 °F 55.4 °F 82% 29.97 in 10.0 mi West 4.6 mph - N/A   Overcast
11:15 PM 60.8 °F 55.4 °F 82% 29.97 in 10.0 mi West 4.6 mph - N/A   Overcast
11:35 PM 59.0 °F 53.6 °F 82% 29.97 in 10.0 mi NNW 3.5 mph - N/A   Scattered Clouds
11:55 PM 59.0 °F 53.6 °F 82% 29.97 in 10.0 mi Calm Calm - N/A   Mostly Cloudy